Pleasanton, TX

4:35 PM CST on December 17, 2017 (GMT -0600)
Pleasanton Municipal

Weather History for KPEZ - September, 2013

Change the Weather History Date:

Sunday, September 15, 2013

  Actual Average Record
Temperature  
Mean Temperature 82 °F -  
Max Temperature 93 °F 94 °F 98 °F (2011)
Min Temperature 72 °F 70 °F 60 °F (1993)
Cooling Degree Days 17    
Growing Degree Days 32 (Base 50)    
Moisture  
Dew Point 69 °F    
Average Humidity 66    
Maximum Humidity 88    
Minimum Humidity 41    
Precipitation  
Precipitation 0.00 in - - ()
Sea Level Pressure  
Sea Level Pressure 29.94 in    
Wind  
Wind Speed 5 mph (ENE)    
Max Wind Speed 15 mph    
Max Gust Speed 22 mph    
Visibility 10 miles    
Events Thunderstorm    
Averages and records for this station are not official NWS values.
T = Trace of Precipitation, MM = Missing Value Source: NWS Daily Summary

Daily Weather History Graph

Daily Weather History Graph

Search for Another Location

Airport or City:

Trip Planner

Search our weather history database for the weather conditions in past years. The results will help you decide how hot, cold, wet, or windy it might be!

Date:

Astronomy

Sep. 15, 2013 Rise Set
Actual Time 7:19 AM CDT 7:38 PM CDT
Civil Twilight 6:55 AM CDT 8:02 PM CDT
Nautical Twilight 6:27 AM CDT 8:30 PM CDT
Astronomical Twilight 5:59 AM CDT 8:58 PM CDT
Moon 4:53 PM CDT (9/15) 3:14 AM CDT (9/15)
Length of Visible Light 13h 07m
Length of Day
12h 19m
Waxing Gibbous, 82% of the Moon is Illuminated
Sep 15
Waxing Gibbous
Sep 19
Full
Sep 26
Last Quarter
Oct 4
New
Oct 11
First Quarter

Hourly Weather History & Observations

Time (CDT) Temp. Heat Index Dew Point Humidity Pressure Visibility Wind Dir Wind Speed Gust Speed Precip Events Conditions
12:15 AM 77.9 °F - 67.1 °F 69% 29.93 in 10.0 mi Calm Calm - N/A   Clear
12:35 AM 76.5 °F - 66.9 °F 72% 29.93 in 10.0 mi Calm Calm - N/A   Clear
12:55 AM 76.5 °F - 66.7 °F 72% 29.93 in 10.0 mi Calm Calm - N/A   Clear
1:15 AM 75.6 °F - 66.7 °F 74% 29.92 in 10.0 mi Calm Calm - N/A   Clear
1:35 AM 74.7 °F - 67.1 °F 77% 29.92 in 10.0 mi Calm Calm - N/A   Clear
1:55 AM 74.3 °F - 66.7 °F 77% 29.92 in 10.0 mi Calm Calm - N/A   Clear
2:15 AM 74.1 °F - 67.3 °F 79% 29.92 in 10.0 mi NNE 3.5 mph - N/A   Clear
2:35 AM 74.5 °F - 67.6 °F 79% 29.92 in 10.0 mi Calm Calm - N/A   Clear
2:55 AM 73.9 °F - 67.6 °F 81% 29.92 in 10.0 mi NNE 3.5 mph - N/A   Clear
3:15 AM 73.6 °F - 68.0 °F 83% 29.91 in 10.0 mi Calm Calm - N/A   Clear
3:35 AM 73.0 °F - 68.0 °F 84% 29.91 in 10.0 mi Calm Calm - N/A   Clear
3:55 AM 72.9 °F - 68.0 °F 85% 29.91 in 10.0 mi Calm Calm - N/A   Clear
4:15 AM 72.5 °F - 68.0 °F 86% 29.91 in 10.0 mi Calm Calm - N/A   Clear
4:35 AM 72.0 °F - 68.2 °F 88% 29.91 in 10.0 mi Calm Calm - N/A   Clear
4:55 AM 72.5 °F - 68.5 °F 87% 29.91 in 10.0 mi Calm Calm - N/A   Clear
5:15 AM 72.5 °F - 68.9 °F 88% 29.91 in 10.0 mi NNE 3.5 mph - N/A   Clear
5:35 AM 73.0 °F - 69.3 °F 88% 29.92 in 10.0 mi NNE 4.6 mph - N/A   Clear
5:55 AM 73.6 °F - 69.4 °F 87% 29.92 in 10.0 mi NNE 4.6 mph - N/A   Clear
6:15 AM 73.6 °F - 69.4 °F 87% 29.92 in 10.0 mi NNE 5.8 mph - N/A   Scattered Clouds
6:35 AM 73.6 °F - 69.8 °F 88% 29.93 in 10.0 mi NE 4.6 mph - N/A   Clear
6:55 AM 73.6 °F - 69.8 °F 88% 29.93 in 10.0 mi NE 4.6 mph - N/A   Scattered Clouds
7:15 AM 73.8 °F - 70.0 °F 88% 29.93 in 10.0 mi NNE 5.8 mph - N/A   Scattered Clouds
7:35 AM 73.6 °F - 70.0 °F 88% 29.94 in 10.0 mi NNE 4.6 mph - N/A   Scattered Clouds
7:55 AM 73.9 °F - 70.3 °F 88% 29.95 in 10.0 mi North 4.6 mph - N/A   Clear
8:15 AM 75.0 °F - 71.1 °F 87% 29.95 in 10.0 mi NNE 4.6 mph - N/A   Scattered Clouds
8:35 AM 76.1 °F - 71.6 °F 86% 29.96 in 10.0 mi NNE 6.9 mph - N/A   Scattered Clouds
8:55 AM 78.1 °F - 72.0 °F 81% 29.96 in 10.0 mi NE 6.9 mph - N/A   Mostly Cloudy
9:15 AM 80.1 °F 84.0 °F 72.1 °F 77% 29.96 in 10.0 mi NE 11.5 mph - N/A   Scattered Clouds
9:35 AM 80.2 °F 84.3 °F 72.3 °F 77% 29.97 in 10.0 mi NE 10.4 mph - N/A   Scattered Clouds
9:55 AM 81.7 °F 86.7 °F 72.7 °F 74% 29.98 in 10.0 mi NE 9.2 mph - N/A   Scattered Clouds
10:15 AM 82.9 °F 88.3 °F 72.1 °F 70% 29.98 in 10.0 mi East 9.2 mph - N/A   Mostly Cloudy
10:35 AM 83.5 °F 89.1 °F 72.3 °F 69% 29.99 in 10.0 mi ENE 12.7 mph - N/A   Mostly Cloudy
10:55 AM 85.6 °F 91.5 °F 72.0 °F 63% 29.99 in 10.0 mi East 10.4 mph - N/A   Mostly Cloudy
11:15 AM 85.5 °F 90.8 °F 71.1 °F 62% 29.99 in 10.0 mi East 9.2 mph 17.3 mph N/A   Mostly Cloudy
11:35 AM 85.6 °F 90.4 °F 70.3 °F 60% 29.99 in 10.0 mi East 8.1 mph 16.1 mph N/A   Mostly Cloudy
11:55 AM 86.9 °F 92.1 °F 70.3 °F 58% 29.99 in 10.0 mi ENE 11.5 mph - N/A   Scattered Clouds
12:15 PM 86.5 °F 91.8 °F 70.5 °F 59% 29.98 in 10.0 mi ENE 9.2 mph - N/A   Scattered Clouds
12:35 PM 87.1 °F 92.0 °F 70.0 °F 57% 29.98 in 10.0 mi East 9.2 mph - N/A   Scattered Clouds
12:55 PM 88.5 °F 93.5 °F 69.8 °F 54% 29.97 in 10.0 mi ENE 12.7 mph 20.7 mph N/A   Mostly Cloudy
1:15 PM 90.1 °F 94.4 °F 68.9 °F 49% 29.96 in 10.0 mi ENE 12.7 mph 18.4 mph N/A   Scattered Clouds
1:35 PM 88.9 °F 93.4 °F 69.1 °F 52% 29.96 in 10.0 mi East 15.0 mph 20.7 mph N/A   Scattered Clouds
1:55 PM 92.1 °F 94.8 °F 66.2 °F 42% 29.94 in 10.0 mi East 10.4 mph 20.7 mph N/A   Scattered Clouds
2:15 PM 90.1 °F 93.1 °F 66.7 °F 46% 29.93 in 10.0 mi East 11.5 mph 17.3 mph N/A   Scattered Clouds
2:35 PM 89.2 °F 92.4 °F 67.3 °F 48% 29.93 in 10.0 mi ENE 10.4 mph - N/A Thunderstorm Clear
2:55 PM 89.6 °F 92.6 °F 66.9 °F 47% 29.92 in 10.0 mi ENE 13.8 mph 20.7 mph N/A   Scattered Clouds
3:15 PM 90.5 °F 92.5 °F 64.9 °F 43% 29.91 in 10.0 mi ENE 12.7 mph 21.9 mph N/A   Clear
3:35 PM 91.2 °F 92.9 °F 64.8 °F 41% 29.92 in 10.0 mi East 13.8 mph 21.9 mph N/A   Scattered Clouds
3:55 PM 90.3 °F 91.9 °F 64.0 °F 42% 29.92 in 10.0 mi East 11.5 mph 17.3 mph N/A   Scattered Clouds
4:15 PM 89.6 °F 91.5 °F 64.8 °F 44% 29.92 in 10.0 mi East 12.7 mph 18.4 mph N/A   Scattered Clouds
4:35 PM 88.7 °F 91.5 °F 66.7 °F 48% 29.92 in 10.0 mi ESE 8.1 mph - N/A   Scattered Clouds
4:55 PM 87.8 °F 91.8 °F 68.7 °F 53% 29.92 in 10.0 mi SE 6.9 mph - N/A   Scattered Clouds
5:15 PM 88.2 °F 92.1 °F 68.4 °F 52% 29.91 in 10.0 mi ESE 8.1 mph - N/A   Clear
5:35 PM 88.5 °F 91.9 °F 67.8 °F 50% 29.91 in 10.0 mi East 8.1 mph - N/A   Clear
5:55 PM 88.5 °F 91.6 °F 67.1 °F 49% 29.91 in 10.0 mi East 10.4 mph - N/A   Clear
6:15 PM 87.8 °F 90.7 °F 66.9 °F 50% 29.92 in 10.0 mi East 11.5 mph - N/A   Clear
6:35 PM 88.0 °F 90.0 °F 65.3 °F 47% 29.93 in 10.0 mi East 9.2 mph 18.4 mph N/A   Clear
6:55 PM 87.8 °F 89.4 °F 64.9 °F 46% 29.93 in 10.0 mi East 6.9 mph - N/A   Clear
7:15 PM 87.1 °F 88.3 °F 64.2 °F 46% 29.93 in 10.0 mi East 9.2 mph - N/A   Clear
7:35 PM 86.2 °F 87.9 °F 64.9 °F 49% 29.94 in 10.0 mi East 8.1 mph - N/A   Clear
7:55 PM 85.6 °F 87.9 °F 66.2 °F 52% 29.95 in 10.0 mi East 6.9 mph - N/A   Clear
8:15 PM 85.1 °F 87.7 °F 66.7 °F 54% 29.95 in 10.0 mi East 6.9 mph - N/A   Clear
8:35 PM 84.4 °F 87.1 °F 67.3 °F 56% 29.96 in 10.0 mi East 5.8 mph - N/A   Clear
8:55 PM 83.7 °F 86.7 °F 68.0 °F 59% 29.96 in 10.0 mi East 5.8 mph - N/A   Clear
9:15 PM 83.3 °F 86.6 °F 68.5 °F 61% 29.97 in 10.0 mi East 3.5 mph - N/A   Clear
9:35 PM 82.4 °F 85.8 °F 68.9 °F 64% 29.98 in 10.0 mi East 3.5 mph - N/A   Clear
9:55 PM 82.0 °F 85.5 °F 69.3 °F 65% 29.98 in 10.0 mi East 5.8 mph - N/A   Clear
10:15 PM 82.0 °F 85.7 °F 69.8 °F 66% 29.99 in 10.0 mi East 5.8 mph - N/A   Clear
10:35 PM 81.7 °F 85.2 °F 69.8 °F 67% 29.98 in 10.0 mi East 6.9 mph - N/A   Clear
10:55 PM 81.5 °F 84.9 °F 69.8 °F 67% 29.98 in 10.0 mi East 6.9 mph - N/A   Clear
11:15 PM 81.0 °F 84.4 °F 70.0 °F 69% 29.99 in 10.0 mi East 6.9 mph - N/A   Clear
11:35 PM 80.6 °F 84.1 °F 70.3 °F 71% 29.99 in 10.0 mi East 5.8 mph - N/A   Clear
11:55 PM 80.2 °F 83.7 °F 70.7 °F 73% 29.99 in 10.0 mi East 5.8 mph - N/A   Clear